STARLINK-4187, 52850

Orbit data source: Space-Track

STARLINK-4187, 52850 is a payload satellite owned by SpaceX/Seattle (US) in LEO that was launched on Fri, 17 Jun 2022 UTC via an FALCON 9 launch vehicle from the Air Force Eastern Test Range (AFETR). Payload-class satellites include a variety of spacecraft equipped with specific instruments for various scientific and technological missions. These include communications satellites like Starlink; space stations such as the ISS; scientific satellites like the Hubble; Earth observation satellites from companies like Planet Labs, Umbra, and HawkEye 360; GPS; miniature CubeSats for education and research; and military/defense satellites.

Loading next visibility...
Identifier
52850, 2022-062W
Orbit
LEO
Country
Flag of USUS
Related business
Manufacturer
SpaceX/Seattle
Mission
Operational Commercial Communications
Bus & Motor
STARLINK, Unknown motor
Mass
297 kg wet, ~275 kg dry
Launch date (UTC)
2022-06-17 (3 years ago)
Launch vehicle
FALCON 9
Launch site
Air Force Eastern Test Range (AFETR)
Object type
Payload
Rocket body
Debris
Shape & HBR
Box + 1 Pan, 10.1 m
Radar Cross Section
13.562 m², Large (>1 m²)

Expand to show TLE details & history
Last TLE update: 17 hours ago

TLE from 17 hours ago
0 STARLINK-4187
1 52850U 22062W   25348.89758152  .00001657  00000-0  12217-3 0  9994
2 52850  53.2198  55.1247 0001455  98.3532 261.7625 15.08836103192982
Epoch: 2025-12-14T21:32Z
TLE epoch observation values (Epoch: 2025-12-14T21:32:31.043Z)
Latitude
-0.00003°
Longitude
8.19143°
Altitude
540.797 km
Speed
7.593 km/s
True Right ascension
03h 40m 29s
True Declination
0° 00' 00"
Sunlit
Object was in full shadow at epoch
Visualization orbit readout
Latitude
Unknown
Longitude
Unknown
Altitude
Unknown
Speed
Unknown
Apparent Right ascension
Unknown
Apparent Declination
Unknown
Sunlit
N/A
Visualization observer readout
Local Sidereal Time
13:19:51
Azimuth
Unknown
Elevation
Unknown
Doppler factor
Unknown
Orbital elements
Apogee altitude
541.006 km
Perigee altitude
538.993 km
Semi-major axis
6,918.137 km
Eccentricity
0.00015
Inclination
53.2198°
RAAN
55.1247°
Arg. of periapsis
98.3532°
True anomaly
261.746°
Mean anomaly
261.7625°
Eccentric anomaly
261.75425°
Mean motion
3.77189 °/min
Orbital period
95.44 mins
BSTAR
0.00012217
Loading maneuver chart data...
Computing Atmospheric mass density...
Loading historical data...
Loading historical data...
Loading historical data...
Loading historical data...
Loading historical data...
Loading historical data...
Loading historical data...

Documentation

Showing up to 5 results
|